Location: Mentone
(34.5413°N, 85.5351°W)
Time: 07:50:09
(UTC-05:00)

Okean O Rocket - Visible Passes

Search period start: 24 July 2016 00:00
Search period end: 03 August 2016 00:00
Orbit: 622 x 646 km, 98.1° (Epoch: 23 July)

Date Brightness Start Highest point End Pass type
(mag) Time Alt. Az. Time Alt. Az. Time Alt. Az.
24 Jul 4.4 02:57:24 10° ENE 02:58:32 11° E 02:59:39 10° ESE visible
24 Jul 1.8 04:30:53 10° N 04:35:10 53° WNW 04:38:15 18° SW visible
25 Jul 3.8 03:17:13 10° NE 03:20:26 20° E 03:22:43 14° SE visible
25 Jul 2.6 04:52:58 10° N 04:56:47 30° WNW 05:00:12 12° SW visible
26 Jul 2.9 03:38:14 10° NNE 03:42:17 35° E 03:44:40 20° SSE visible
26 Jul 3.3 05:15:28 10° NNW 05:18:21 17° WNW 05:21:16 10° WSW visible
27 Jul 1.9 03:59:41 10° NNE 04:04:04 64° ESE 04:06:37 24° S visible
28 Jul 1.6 04:21:24 10° N 04:25:47 70° WNW 04:28:33 22° SSW visible
29 Jul 4.1 03:08:21 10° ENE 03:10:58 15° E 03:13:02 12° SE visible
29 Jul 2.3 04:43:21 10° N 04:47:27 38° WNW 04:50:30 16° SW visible
30 Jul 3.4 03:29:05 10° NE 03:32:51 27° E 03:34:59 19° SE visible
30 Jul 3.0 05:05:38 10° NNW 05:09:02 22° WNW 05:12:26 10° WSW visible
31 Jul 2.4 03:50:22 10° NNE 03:54:39 49° E 03:56:55 25° SSE visible
01 Aug 1.5 04:11:58 10° NNE 04:16:24 90° E 04:18:51 26° SSW visible
02 Aug 4.3 02:59:51 10° ENE 03:01:29 12° E 03:03:08 10° ESE visible
02 Aug 1.9 04:33:49 10° N 04:38:05 50° WNW 04:40:47 21° SW visible
